Location: Roanoke
(37.2710°N, 79.9420°W)
Time: 21:38:38
(UTC-05:00)

Tiros 1 - All Passes

Search period start: 15 November 2019 00:00
Search period end: 25 November 2019 00:00
Orbit: 630 x 664 km, 48.4° (Epoch: 14 November)

Date Brightness Start Highest point End Pass type
(mag) Time Alt. Az. Time Alt. Az. Time Alt. Az.
15 Nov - 15:06:49 10° SW 15:11:21 61° SE 15:15:56 10° ENE daylight
15 Nov - 16:49:34 10° W 16:53:46 33° NNW 16:58:00 10° NE daylight
15 Nov - 18:33:31 10° NW 18:37:00 20° N 18:40:31 10° NE visible
15 Nov - 20:16:09 10° NW 20:20:17 30° NNE 20:24:27 10° E visible
15 Nov - 21:58:08 10° WNW 22:02:49 76° SW 22:07:34 10° SE night (unlit)
15 Nov - 23:42:24 10° WSW 23:44:25 13° SW 23:46:27 10° SSW night (unlit)
16 Nov - 13:51:53 10° S 13:55:33 24° SE 13:59:13 10° E daylight
16 Nov - 15:32:51 10° WSW 15:37:25 63° NNW 15:42:02 10° NE daylight
16 Nov - 17:16:32 10° WNW 17:20:17 24° NNW 17:24:03 10° NE daylight
16 Nov - 19:00:01 10° NW 19:03:39 22° N 19:07:19 10° ENE visible
16 Nov - 20:42:05 10° NW 20:46:39 50° NNE 20:51:14 10° ESE visible
16 Nov - 22:24:31 10° WNW 22:28:44 33° SW 22:32:58 10° SSE night (unlit)
17 Nov - 14:16:51 10° SW 14:21:22 56° SE 14:25:53 10° ENE daylight
17 Nov - 15:59:28 10° W 16:03:43 35° NNW 16:07:59 10° NE daylight
17 Nov - 17:43:26 10° NW 17:46:55 20° N 17:50:24 10° NE visible
17 Nov - 19:26:08 10° NW 19:30:13 29° NNE 19:34:19 10° E visible
17 Nov - 21:08:06 10° WNW 21:12:48 82° SW 21:17:31 10° SE visible
17 Nov - 22:52:02 10° W 22:54:25 14° SW 22:56:51 10° SSW night (unlit)
18 Nov - 13:02:03 10° S 13:05:33 22° SE 13:09:04 10° E daylight
18 Nov - 14:42:48 10° WSW 14:47:23 68° NNW 14:52:01 10° NE daylight
18 Nov - 16:26:25 10° WNW 16:30:12 24° NNW 16:34:00 10° NE daylight
18 Nov - 18:09:58 10° NW 18:13:34 22° N 18:17:11 10° ENE visible
18 Nov - 19:52:05 10° NW 19:56:36 47° NNE 20:01:08 10° ESE visible
18 Nov - 21:34:26 10° WNW 21:38:43 36° SW 21:43:03 10° SSE night (unlit)
19 Nov - 13:26:53 10° SW 13:31:21 51° SE 13:35:50 10° ENE daylight
19 Nov - 15:09:22 10° W 15:13:39 37° NNW 15:17:58 10° NE daylight
19 Nov - 16:53:21 10° NW 16:56:49 20° N 17:00:19 10° NE daylight
19 Nov - 18:36:08 10° NW 18:40:08 28° NNE 18:44:10 10° ENE visible
19 Nov - 20:18:05 10° NW 20:22:46 89° SW 20:27:29 10° SE visible
19 Nov - 22:01:44 10° W 22:04:27 15° SW 22:07:10 10° SSW night (unlit)
20 Nov - 12:12:15 10° S 12:15:35 20° SE 12:18:54 10° E daylight
20 Nov - 13:52:45 10° WSW 13:57:21 73° NNW 14:01:59 10° NE daylight
20 Nov - 15:36:18 10° WNW 15:40:07 25° NNW 15:43:58 10° NE daylight
20 Nov - 17:19:55 10° NW 17:23:29 21° N 17:27:03 10° ENE daylight
20 Nov - 19:02:05 10° NW 19:06:32 44° NNE 19:11:01 10° E visible
20 Nov - 20:44:22 10° WNW 20:48:43 39° SW 20:53:05 10° SSE visible
21 Nov - 12:36:56 10° SSW 12:41:21 46° SE 12:45:46 10° ENE daylight
21 Nov - 14:19:17 10° W 14:23:36 39° NNW 14:27:57 10° NE daylight
21 Nov - 16:03:15 10° NW 16:06:44 21° N 16:10:14 10° NE daylight
21 Nov - 17:46:07 10° NW 17:50:04 27° NNE 17:54:02 10° ENE visible
21 Nov - 19:28:04 10° NW 19:32:44 85° NE 19:37:26 10° SE visible
21 Nov - 21:11:29 10° W 21:14:27 17° SW 21:17:26 10° S visible
22 Nov - 11:22:28 10° S 11:25:36 18° SE 11:28:42 10° E daylight
22 Nov - 13:02:43 10° WSW 13:07:20 79° NW 13:11:58 10° NE daylight
22 Nov - 14:46:11 10° WNW 14:50:03 26° NNW 14:53:56 10° NE daylight
22 Nov - 16:29:53 10° NW 16:33:24 21° N 16:36:55 10° NE daylight
22 Nov - 18:12:05 10° NW 18:16:29 41° NNE 18:20:55 10° E visible
22 Nov - 19:54:18 10° WNW 19:58:42 43° SW 20:03:08 10° SSE visible
23 Nov - 11:46:59 10° SSW 11:51:20 42° SE 11:55:42 10° ENE daylight
23 Nov - 13:29:11 10° W 13:33:33 41° NNW 13:37:56 10° NE daylight
23 Nov - 15:13:09 10° NW 15:16:39 21° N 15:20:09 10° NE daylight
23 Nov - 16:56:06 10° NW 16:59:59 26° NNE 17:03:54 10° ENE daylight
23 Nov - 18:38:03 10° NW 18:42:42 79° NNE 18:47:23 10° ESE visible
23 Nov - 20:21:16 10° W 20:24:28 18° SW 20:27:40 10° S visible
24 Nov - 10:32:43 10° S 10:35:36 16° SE 10:38:29 10° E daylight
24 Nov - 12:12:40 10° SW 12:17:18 85° NW 12:21:57 10° NE daylight
24 Nov - 13:56:03 10° WNW 13:59:58 26° NNW 14:03:54 10° NE daylight
24 Nov - 15:39:49 10° NW 15:43:18 21° N 15:46:47 10° NE daylight
24 Nov - 17:22:04 10° NW 17:26:25 39° NNE 17:30:48 10° E visible
24 Nov - 19:04:14 10° WNW 19:08:42 47° SW 19:13:11 10° SSE visible
